Location: Joplin, MO
(37.0842°N, 94.5133°W)
Time: 11:15:33
(UTC+02:00)

Courier 1B - All Passes

Search period start: 29 March 2023 00:00
Search period end: 08 April 2023 00:00
Orbit: 962 x 1209 km, 28.3° (Epoch: 28 March)

Date Brightness Start Highest point End Pass type
(mag) Time Alt. Az. Time Alt. Az. Time Alt. Az.
29 Mar - 00:46:37 10° WSW 00:53:35 42° S 01:00:09 10° ESE daylight
29 Mar - 02:40:50 10° WSW 02:47:09 33° SSW 02:53:09 10° SE daylight
29 Mar - 04:36:28 10° WSW 04:40:21 16° SSW 04:44:08 10° S visible
29 Mar - 20:10:16 10° SSE 20:12:44 12° SSE 20:15:12 10° SE daylight
29 Mar - 21:59:43 10° SW 22:06:07 28° SSE 22:12:19 10° ESE daylight
29 Mar - 23:52:43 10° WSW 23:59:47 42° S 00:06:29 10° ESE daylight
30 Mar - 01:46:45 10° WSW 01:53:28 38° S 01:59:47 10° SE daylight
30 Mar - 03:41:47 10° WSW 03:46:47 21° SSW 03:51:36 10° SSE visible
30 Mar - 21:06:23 10° SSW 21:12:21 24° SSE 21:18:12 10° ESE daylight
30 Mar - 22:58:52 10° WSW 23:05:58 40° S 23:12:45 10° ESE daylight
31 Mar - 00:52:44 10° WSW 00:59:42 41° S 01:06:18 10° ESE daylight
31 Mar - 02:47:23 10° WSW 02:53:10 26° SSW 02:58:41 10° SSE daylight
31 Mar - 20:13:19 10° SSW 20:18:36 20° SSE 20:23:49 10° ESE daylight
31 Mar - 22:05:08 10° SW 22:12:08 37° SSE 22:18:55 10° ESE daylight
31 Mar - 23:58:44 10° WSW 00:05:54 43° S 00:12:43 10° ESE daylight
01 Apr - 01:53:09 10° WSW 01:59:30 31° SSW 02:05:33 10° SE daylight
01 Apr - 03:49:36 10° SW 03:52:40 13° SSW 03:55:40 10° S visible
01 Apr - 19:20:44 10° S 19:24:52 15° SSE 19:29:00 10° ESE daylight
01 Apr - 21:11:31 10° SW 21:18:19 33° SSE 21:24:58 10° ESE daylight
01 Apr - 23:04:47 10° WSW 23:12:03 44° S 23:19:02 10° ESE daylight
02 Apr - 00:58:59 10° WSW 01:05:47 36° SSW 01:12:13 10° SE daylight
02 Apr - 02:54:28 10° WSW 02:59:06 18° SSW 03:03:34 10° SSE visible
02 Apr - 18:29:21 10° SSE 18:31:10 11° SSE 18:32:59 10° SE daylight
02 Apr - 20:18:05 10° SW 20:24:30 28° SSE 20:30:52 10° ESE daylight
02 Apr - 22:10:55 10° WSW 22:18:12 42° S 22:25:16 10° ESE daylight
03 Apr - 00:04:55 10° WSW 00:12:00 40° S 00:18:45 10° ESE daylight
03 Apr - 01:59:51 10° WSW 02:05:27 23° SSW 02:10:51 10° SSE daylight
03 Apr - 19:24:51 10° SSW 19:30:43 23° SSE 19:36:36 10° ESE daylight
03 Apr - 21:17:09 10° WSW 21:24:20 40° S 21:31:25 10° ESE daylight
03 Apr - 23:10:53 10° WSW 23:18:10 43° S 23:25:10 10° ESE daylight
04 Apr - 01:05:29 10° WSW 01:11:47 28° SSW 01:17:48 10° SE daylight
04 Apr - 03:03:29 10° SW 03:04:55 11° SSW 03:06:20 10° SSW visible
04 Apr - 18:31:59 10° SSW 18:36:59 19° SSE 18:42:03 10° ESE daylight
04 Apr - 20:23:29 10° SW 20:30:29 36° SSE 20:37:27 10° ESE daylight
04 Apr - 22:16:56 10° WSW 22:24:17 44° S 22:31:28 10° ESE daylight
05 Apr - 00:11:15 10° WSW 00:18:01 33° SSW 00:24:32 10° SE daylight
05 Apr - 02:07:18 10° WSW 02:11:19 15° SSW 02:15:14 10° S daylight
05 Apr - 17:39:40 10° S 17:43:17 14° SSE 17:46:57 10° ESE daylight
05 Apr - 19:29:58 10° SW 19:36:39 32° SSE 19:43:23 10° ESE daylight
05 Apr - 21:23:03 10° WSW 21:30:24 44° S 21:37:40 10° ESE daylight
05 Apr - 23:17:08 10° WSW 23:24:13 38° SSW 23:31:05 10° SE daylight
06 Apr - 01:12:23 10° WSW 01:17:41 20° SSW 01:22:48 10° SSE daylight
06 Apr - 18:36:40 10° SSW 18:42:51 27° SSE 18:49:10 10° ESE daylight
06 Apr - 20:29:16 10° WSW 20:36:31 42° S 20:43:47 10° ESE daylight
06 Apr - 22:23:06 10° WSW 22:30:22 42° S 22:37:29 10° ESE daylight
07 Apr - 00:17:52 10° WSW 00:23:58 25° SSW 00:29:53 10° SSE daylight
07 Apr - 17:43:37 10° SSW 17:49:07 22° SSE 17:54:45 10° ESE daylight
07 Apr - 19:35:36 10° SW 19:42:39 39° S 19:49:48 10° ESE daylight
07 Apr - 21:29:09 10° WSW 21:36:29 44° S 21:43:46 10° ESE daylight
07 Apr - 23:23:35 10° WSW 23:30:13 30° SSW 23:36:41 10° SE daylight
